Location: Drummondville
(45.8830°N, 72.4830°W)
Time: 00:07:41
(UTC-04:00)

Tiangong 2 - Visible Passes

Search period start: 24 October 2017 00:00
Search period end: 03 November 2017 00:00
Orbit: 388 x 391 km, 42.8° (Epoch: 23 October)

Date Brightness Start Highest point End Pass type
(mag) Time Alt. Az. Time Alt. Az. Time Alt. Az.
30 Oct 3.6 19:00:32 10° SSE 19:01:29 11° SSE 19:01:29 11° SSE visible
31 Oct 3.2 19:37:15 10° SW 19:38:40 19° SSW 19:38:40 19° SSW visible
01 Nov 3.1 18:39:51 10° SSW 18:42:06 18° SSE 18:43:27 14° ESE visible
01 Nov 4.3 20:15:28 10° WSW 20:15:46 12° WSW 20:15:46 12° WSW visible
02 Nov 2.1 19:17:38 10° SW 19:20:28 34° S 19:20:28 34° S visible
